Location: Chuathbaluk
(61.5726°N, 159.2454°W)
Time: 15:12:28
(UTC+00:00)

ZACube-1 - Pass Details

Date: 20 January 2021
Orbit: 583 x 666 km, 97.6° (Epoch: 01 March)

Event Time Altitude Azimuth Distance (km) Brightness Sun altitude
Rises 16:26:21 0° 16° (NNE) 3,024 ? -20.0°
Reaches altitude 10° 16:28:36 10° 15° (NNE) 2,108 ? -19.8°
Maximum altitude 16:33:13 79° 291° (WNW) 688 ? -19.2°
Drops below altitude 10° 16:37:47 10° 204° (SSW) 2,082 ? -18.7°
Sets 16:39:59 0° 204° (SSW) 2,983 ? -18.4°
